CZ-6A DEB, 61415

Orbit data source: Space-Track

CZ-6A DEB, 61415 is space debris in LEO originally from a launch on Tue, 06 Aug 2024 UTC launched from the Taiyaun Space Center, China (TSC). Debris objects in space refer to the collection of defunct objects orbiting the Earth. Examples of debris include non-operational satellites, rocket bodies, and fragments generated from explosions, collisions, or faulty payload assembly.

Loading next visibility...
Identifier
61415, 2024-140YG
Orbit
LEO
Country
Flag of CNCN / PRC
Related business
Manufacturer
SAST
Mission
Spacecraft
Bus & Motor
Unknown
Mass
Unknown
Launch date (UTC)
2024-08-06 (1 year ago)
Launch vehicle
Unknown
Launch site
Taiyaun Space Center, China (TSC)
Object type
Payload
Rocket body
Debris
Shape & HBR
Unknown shape, 0.1 m
Radar Cross Section
Small (<0.1 m²)

Expand to show TLE details & history
Last TLE update: 16 hours ago

TLE from 16 hours ago
0 CZ-6A DEB
1 61415U 24140YG  25342.84429480  .00002927  00000-0  16605-2 0  9993
2 61415  88.9905 296.8378 0124150 146.1296 214.7895 14.05925144 63979
Epoch: 2025-12-08T20:15Z
TLE epoch observation values (Epoch: 2025-12-08T20:15:47.070Z)
Latitude
-0.00005°
Longitude
-84.94582°
Altitude
950.693 km
Speed
7.338 km/s
True Right ascension
19h 47m 21s
True Declination
0° 00' 00"
Sunlit
Object was in daylight at epoch
Visualization orbit readout
Latitude
Unknown
Longitude
Unknown
Altitude
Unknown
Speed
Unknown
Apparent Right ascension
Unknown
Apparent Declination
Unknown
Sunlit
N/A
Visualization observer readout
Local Sidereal Time
10:16:36
Azimuth
Unknown
Elevation
Unknown
Doppler factor
Unknown
Orbital elements
Apogee altitude
960.31 km
Perigee altitude
780.331 km
Semi-major axis
7,248.457 km
Eccentricity
0.01242
Inclination
88.9905°
RAAN
296.8378°
Arg. of periapsis
146.1296°
True anomaly
213.98803°
Mean anomaly
214.7895°
Eccentric anomaly
214.38775°
Mean motion
3.51702 °/min
Orbital period
102.36 mins
BSTAR
0.0016605
Loading maneuver chart data...
Computing Atmospheric mass density...
Loading historical data...
Loading historical data...
Loading historical data...
Loading historical data...
Loading historical data...
Loading historical data...
Loading historical data...

Documentation

Showing up to 5 results
|